Snowfall_Accumulation
0.0 0.0 0.0 0.0 0.0 0.0 0.0 0.0 0.0 0.0 0.0 0.0 0.0 0.0 0.0 0.0 0.0 0.0 0.0 0.0 0.0 0.0 0.0 0.0 0.0 0.0 0.0 0.0 0.0 0.0 0.0 0.0 0.0 0.0 0.0 0.0 0.0 0.0 0.0 0.0 0.0 0.0 0.0 0.0
0.0 0.0 0.0 0.0 0.0 0.0 0.0 0.0 0.0 0.0 0.0 0.0 0.0 0.0 0.0 0.0 0.0 0.0 0.0 0.0 0.0 0.0 0.0 0.0 0.0 0.0 0.0 0.0 0.0 0.0 0.0 0.0 0.0 0.0 0.0 0.0 0.0 0.0 0.0 0.0 0.0 0.0 0.0 0.0
0.0 0.0 0.0 0.0 0.0 0.0 0.0 0.0 0.0 0.0 0.0 0.0 0.0 0.0 0.0 0.0 0.0 0.0 0.0 0.0 0.0 0.0 0.0 0.0 0.0 0.0 0.0 0.0 0.0 0.0 0.0 0.0 0.0 0.0 0.0 0.0 0.0 0.0 0.0 0.0 0.0 0.0 0.0 0.0
0.0 0.0 0.0 0.0 0.0 0.0 0.0 0.0 0.0 0.0 0.1 0.1 0.0 0.1 0.0 0.0 0.0 0.0 0.0 0.0 0.0 0.0 0.0 0.0 0.0 0.0 0.0 0.0 0.0 0.0 0.0 0.0 0.0 0.0 0.0 0.0 0.0 0.0 0.0 0.0 0.0 0.0 0.0 0.0
0.0 0.0 0.0 0.0 0.0 0.0 0.0 0.0 0.0 0.0 0.0 0.0 0.0 0.0 0.0 0.0 0.0 0.0 0.0 0.0 0.0 0.0 0.0 0.0 0.0 0.0 0.0 0.0 0.0 0.0 0.0 0.0 0.0 0.0 0.0 0.0 0.0 0.0 0.0 0.0 0.0 0.0 0.0 0.0
0.0 0.0 0.0 0.0 0.0 0.0 0.0 0.0 0.0 0.0 0.0 2.2 0.0 0.0 0.0 0.0 0.0 0.0 0.0 0.0 0.0 0.0 0.0 0.0 0.0 0.0 0.0 0.0 0.0 0.0 0.0 0.0 0.0 0.0 0.0 0.0 0.0 0.0 0.0 0.0 0.0 0.0 0.0 0.0
0.0 0.0 0.0 0.0 0.0 0.0 0.0 0.0 5.9 8.4 12.4 2.4 0.0 0.0 0.0 0.0 0.0 0.0 0.0 0.0 0.0 0.0 0.0 0.0 0.0 0.0 0.0 0.0 0.0 0.0 0.0 0.0 0.0 0.0 0.0 0.0 0.0 0.0 0.0 0.0 0.0 0.0 0.0 0.0
1.7 4.5 0.0 0.0 0.0 0.1 0.0 0.1 1.9 1.9 2.5 0.5 0.0 0.1 0.0 0.0 0.0 0.0 0.0 0.0 0.0 0.0 0.0 0.0 0.0 0.0 0.0 0.0 0.0 0.0 0.0 0.0 0.0 0.0 0.0 0.0 0.0 0.0 0.0 0.0 0.0 0.0 0.0 0.0
1.5 0.7 0.0 0.0 0.0 0.0 0.1 1.3 0.0 1.2 1.9 0.9 0.0 0.0 0.0 0.0 0.0 0.0 0.0 0.0 0.0 0.0 0.0 0.0 0.0 0.0 0.0 0.0 0.0 0.0 0.0 0.0 0.0 0.0 0.0 0.0 0.0 0.0 0.0 0.0 0.0 0.0 0.0 0.0
0.2 2.4 0.2 0.0 0.0 0.0 0.0 0.0 1.8 1.5 6.3 1.7 0.3 0.0 0.0 0.0 0.0 0.0 0.0 0.0 0.0 0.0 0.0 0.0 0.0 0.0 0.0 0.0 0.0 0.0 0.0 0.0 0.0 0.0 0.0 0.0 0.0 0.0 0.0 0.0 0.0 0.0 0.0 0.0
0.2 0.7 0.8 0.1 0.4 0.1 0.2 0.6 0.0 0.1 0.6 1.8 2.3 0.2 0.0 0.0 0.0 0.0 0.0 0.0 0.0 0.0 0.0 0.0 0.0 0.0 0.0 0.0 0.0 0.0 0.0 0.0 0.0 0.0 0.0 0.0 0.0 0.0 0.0 0.0 0.0 0.0 0.0 0.0
0.0 0.2 3.1 1.2 0.0 0.0 0.0 0.0 0.0 0.9 2.1 0.6 1.2 1.2 0.0 0.0 0.0 0.0 0.0 0.0 0.0 0.0 0.0 0.0 0.0 0.0 0.0 0.0 0.0 0.0 0.0 0.0 0.0 0.0 0.0 0.0 0.0 0.0 0.0 0.0 0.0 0.0 0.0 0.0
0.0 5.8 9.5 7.8 3.0 0.1 0.1 0.0 0.0 0.0 0.2 1.3 4.6 0.8 0.0 0.0 0.0 0.0 0.0 0.0 0.0 0.0 0.0 0.0 0.0 0.0 0.0 0.0 0.0 0.0 0.0 0.0 0.0 0.0 0.0 0.0 0.0 0.0 0.0 0.0 0.0 0.0 0.0 0.0
nan 1.4 1.4 0.6 0.1 0.1 1.6 0.5 0.0 0.1 4.6 0.4 0.8 0.6 0.0 0.1 0.2 0.0 0.0 0.0 0.0 0.0 0.0 0.0 0.0 0.0 0.0 0.0 0.0 0.0 0.0 0.0 0.0 0.0 0.0 0.0 0.0 0.0 0.0 0.0 0.0 0.0 0.0 0.0
0.0 4.4 2.6 1.2 0.1 0.0 0.1 0.9 1.9 3.2 0.1 2.2 0.3 2.5 0.0 0.0 0.1 0.2 0.0 0.0 0.0 0.7 0.3 0.1 0.1 0.1 0.0 0.0 0.0 0.0 0.0 0.0 0.0 0.0 0.0 0.0 0.0 0.0 0.0 0.0 0.0 0.0 0.0 0.0
0.0 1.9 1.7 4.8 1.6 0.5 1.8 0.2 0.6 1.9 1.2 1.7 1.6 1.3 0.0 0.0 0.0 0.0 0.0 0.0 0.0 0.0 0.2 0.3 0.1 0.1 0.2 0.4 0.0 0.0 0.1 0.0 0.0 0.0 0.0 0.0 0.0 0.0 0.0 0.0 0.0 0.0 0.0 0.0
0.1 1.2 6.8 12.5 2.8 4.3 12.0 0.7 0.2 0.2 0.1 0.0 1.3 0.0 0.0 0.0 0.0 0.0 0.0 0.0 0.0 0.0 0.0 0.0 0.0 0.1 0.1 0.0 0.0 0.0 0.0 0.0 0.0 0.0 0.0 0.0 0.0 0.0 0.0 0.0 0.0 0.0 0.0 0.0
0.5 0.8 1.8 13.5 6.9 39.1 1.3 0.0 0.0 0.1 0.0 0.0 0.0 0.0 0.0 0.0 0.0 0.0 0.0 0.0 0.0 0.0 0.0 0.0 0.0 0.0 0.0 0.0 0.1 0.0 0.0 0.0 0.0 0.0 0.0 0.0 0.0 0.1 0.1 0.1 0.0 0.0 0.0 0.0
0.1 0.6 15.5 25.6 12.5 0.3 0.1 0.0 0.1 0.0 0.0 0.0 0.0 0.0 0.0 0.0 0.0 0.0 0.0 0.0 0.0 0.0 0.0 0.0 0.0 0.0 0.0 0.0 0.0 0.0 0.0 0.1 0.0 0.0 0.0 0.0 0.0 0.1 0.1 0.0 0.0 0.0 0.0 0.0
0.2 0.0 1.4 27.1 18.7 19.3 0.0 0.0 0.0 0.0 0.3 0.0 0.0 0.0 0.0 0.0 0.0 0.0 0.0 0.0 0.0 0.0 0.0 0.0 0.0 0.0 0.0 0.0 0.0 0.0 0.0 0.0 0.1 0.1 0.1 0.0 0.0 0.0 0.0 0.1 0.1 0.1 0.1 0.1
16.5 20.4 30.6 20.0 14.9 3.2 0.0 0.0 0.0 1.2 0.0 0.0 0.0 0.0 0.0 0.0 0.0 0.0 0.0 0.0 0.0 0.0 0.0 0.0 0.0 0.0 0.0 0.0 0.1 0.1 0.1 0.1 0.1 0.1 0.1 0.1 0.1 0.1 0.0 0.1 0.1 0.1 0.1 0.1
8.2 16.6 28.7 16.3 19.0 24.3 0.0 0.0 0.0 0.0 0.0 0.0 0.0 0.0 0.0 0.0 0.0 0.0 0.0 0.0 0.0 0.0 0.0 0.0 0.0 0.0 0.0 0.1 0.0 0.1 0.1 0.1 0.3 0.3 0.3 0.3 0.3 0.1 0.1 0.2 0.2 0.4 0.2 0.2
8.5 2.4 4.8 0.7 1.6 0.0 0.0 0.0 0.0 0.0 0.0 0.0 0.0 0.0 0.0 0.0 0.0 0.0 0.0 0.0 0.0 0.0 0.0 0.0 0.1 0.3 0.4 0.9 0.4 0.6 0.8 0.9 1.3 1.0 1.6 1.2 1.2 0.7 0.5 0.4 0.4 1.1 0.5 1.0
0.6 0.2 2.9 2.5 0.1 0.0 0.0 0.0 0.0 0.0 0.0 0.0 0.0 0.0 0.0 0.0 0.0 0.0 0.0 0.0 0.0 0.1 0.1 0.4 0.7 1.3 1.5 1.4 1.8 1.1 1.2 1.3 1.9 1.6 1.1 0.9 0.9 0.8 0.9 1.2 1.0 1.3 1.3 1.3
1.3 0.7 2.2 1.3 0.1 0.1 0.0 0.0 0.0 0.0 0.0 0.0 0.0 0.0 0.0 0.0 0.0 0.0 0.0 0.0 0.0 0.1 0.7 1.4 2.5 2.8 2.2 2.2 2.2 2.5 2.0 1.3 0.9 1.1 0.9 0.9 1.2 0.8 0.9 1.3 1.1 1.2 0.6 1.1
1.3 1.6 3.0 1.0 0.2 0.2 0.0 0.0 0.0 0.0 0.0 0.0 0.0 0.0 0.1 0.0 0.0 0.1 0.1 0.0 0.1 0.3 0.9 1.7 2.0 2.3 1.7 2.9 3.2 3.9 3.1 1.8 1.3 0.8 1.8 1.3 1.2 1.2 1.3 1.5 1.7 nan nan nan
Water_Equivalent
0.00 0.00 0.00 0.00 0.00 0.00 0.00 0.00 0.00 0.00 0.00 0.00 0.00 0.00 0.00 0.00 0.00 0.00 0.00 0.00 0.00 0.00 0.00 0.00 0.00 0.00 0.00 0.00 0.00 0.00 0.00 0.00 0.00 0.00 0.00 0.00 0.00 0.00 0.00 0.00 0.00 0.00 0.00 0.00
0.01 0.00 0.00 0.00 0.00 0.00 0.00 0.00 0.00 0.00 0.00 0.00 0.00 0.00 0.00 0.00 0.00 0.00 0.00 0.00 0.00 0.00 0.00 0.00 0.00 0.00 0.00 0.00 0.00 0.00 0.00 0.00 0.00 0.00 0.00 0.00 0.00 0.00 0.00 0.00 0.00 0.00 0.00 0.00
0.01 0.00 0.00 0.00 0.00 0.00 0.00 0.00 0.00 0.00 0.00 0.00 0.00 0.00 0.00 0.00 0.00 0.00 0.00 0.00 0.00 0.00 0.00 0.00 0.00 0.00 0.00 0.00 0.00 0.00 0.00 0.00 0.00 0.00 0.00 0.00 0.00 0.00 0.00 0.00 0.00 0.00 0.00 0.00
0.00 0.00 0.00 0.00 0.00 0.00 0.00 0.00 0.00 0.00 0.03 0.02 0.00 0.02 0.00 0.00 0.00 0.00 0.00 0.00 0.00 0.00 0.00 0.00 0.00 0.00 0.00 0.00 0.00 0.00 0.00 0.00 0.00 0.00 0.00 0.00 0.00 0.00 0.00 0.00 0.00 0.00 0.00 0.00
0.00 0.00 0.00 0.00 0.00 0.00 0.00 0.00 0.00 0.00 0.00 0.01 0.00 0.01 0.00 0.00 0.00 0.00 0.00 0.00 0.00 0.00 0.00 0.00 0.00 0.00 0.00 0.00 0.00 0.00 0.00 0.00 0.00 0.00 0.00 0.00 0.00 0.00 0.00 0.00 0.00 0.00 0.00 0.00
0.00 0.00 0.00 0.00 0.00 0.00 0.00 0.00 0.00 0.00 0.00 0.63 0.00 0.00 0.00 0.00 0.00 0.00 0.00 0.00 0.00 0.00 0.00 0.00 0.00 0.00 0.00 0.00 0.00 0.00 0.00 0.00 0.00 0.00 0.00 0.00 0.00 0.00 0.00 0.00 0.00 0.00 0.00 0.00
0.00 0.00 0.00 0.00 0.00 0.00 0.00 0.02 1.72 2.32 3.26 0.65 0.00 0.00 0.00 0.00 0.00 0.00 0.00 0.00 0.00 0.00 0.00 0.00 0.00 0.00 0.00 0.00 0.00 0.00 0.00 0.00 0.00 0.00 0.00 0.00 0.00 0.00 0.00 0.00 0.00 0.00 0.00 0.00
0.55 1.34 0.00 0.00 0.00 0.02 0.00 0.02 0.54 0.41 0.58 0.13 0.00 0.02 0.00 0.00 0.00 0.00 0.00 0.00 0.00 0.00 0.00 0.00 0.00 0.00 0.00 0.00 0.00 0.00 0.00 0.00 0.00 0.00 0.00 0.00 0.00 0.00 0.00 0.00 0.00 0.00 0.00 0.00
0.46 0.20 0.00 0.00 0.00 0.00 0.04 0.36 0.00 0.28 0.39 0.25 0.02 0.00 0.00 0.00 0.00 0.00 0.00 0.00 0.00 0.00 0.00 0.00 0.00 0.00 0.00 0.00 0.00 0.00 0.00 0.00 0.00 0.00 0.00 0.00 0.00 0.00 0.00 0.00 0.00 0.00 0.00 0.00
0.09 0.61 0.06 0.00 0.00 0.00 0.00 0.00 0.52 0.50 1.42 0.38 0.12 0.00 0.01 0.00 0.00 0.00 0.00 0.00 0.00 0.00 0.00 0.00 0.00 0.00 0.00 0.00 0.00 0.00 0.00 0.00 0.00 0.00 0.00 0.00 0.00 0.00 0.00 0.00 0.00 0.00 0.00 0.00
0.07 0.18 0.23 0.02 0.16 0.04 0.07 0.20 0.00 0.04 0.21 0.45 0.59 0.05 0.00 0.00 0.00 0.00 0.00 0.00 0.00 0.00 0.00 0.00 0.00 0.00 0.00 0.00 0.00 0.00 0.00 0.00 0.00 0.00 0.00 0.00 0.00 0.00 0.00 0.00 0.00 0.00 0.00 0.00
0.00 0.05 0.68 0.34 0.01 0.00 0.00 0.00 0.00 0.27 0.54 0.18 0.32 0.23 0.00 0.00 0.00 0.00 0.00 0.00 0.00 0.00 0.00 0.00 0.00 0.00 0.00 0.00 0.00 0.00 0.00 0.00 0.00 0.00 0.00 0.00 0.00 0.00 0.00 0.00 0.00 0.00 0.00 0.00
0.00 1.26 1.93 1.58 0.69 0.03 0.05 0.00 0.00 0.00 0.05 0.25 1.06 0.20 0.00 0.00 0.00 0.00 0.00 0.00 0.00 0.00 0.00 0.00 0.00 0.00 0.00 0.00 0.00 0.00 0.00 0.00 0.00 0.00 0.00 0.00 0.00 0.00 0.00 0.00 0.00 0.00 0.00 0.00
nan 0.38 0.36 0.17 0.03 0.03 0.40 0.13 0.00 0.04 1.22 0.12 0.22 0.17 0.01 0.05 0.06 0.01 0.01 0.02 0.01 0.01 0.00 0.00 0.00 0.00 0.00 0.00 0.00 0.00 0.00 0.00 0.00 0.00 0.00 0.00 0.00 0.00 0.00 0.00 0.00 0.00 0.00 0.00
0.00 1.13 0.64 0.31 0.03 0.01 0.04 0.22 0.41 0.60 0.02 0.58 0.07 0.62 0.01 0.01 0.02 0.06 0.01 0.00 0.01 0.27 0.12 0.04 0.05 0.03 0.02 0.01 0.01 0.00 0.00 0.00 0.00 0.00 0.00 0.00 0.00 0.00 0.00 0.00 0.00 0.00 0.00 0.00
0.00 0.59 0.37 0.92 0.35 0.14 0.37 0.05 0.17 0.39 0.32 0.42 0.35 0.27 0.00 0.00 0.00 0.02 0.01 0.00 0.00 0.00 0.08 0.13 0.04 0.05 0.06 0.14 0.01 0.00 0.05 0.00 0.00 0.00 0.00 0.00 0.00 0.00 0.00 0.00 0.00 0.00 0.00 0.00
0.02 0.32 2.29 3.66 0.49 0.76 2.54 0.15 0.05 0.04 0.02 0.01 0.31 0.01 0.00 0.00 0.00 0.00 0.00 0.00 0.00 0.00 0.00 0.00 0.00 0.04 0.04 0.02 0.00 0.00 0.00 0.00 0.00 0.00 0.01 0.00 0.01 0.00 0.00 0.00 0.00 0.00 0.00 0.00
0.11 0.17 0.56 3.62 1.90 7.50 0.32 0.01 0.00 0.03 0.02 0.00 0.00 0.00 0.00 0.00 0.00 0.00 0.00 0.00 0.00 0.00 0.00 0.00 0.00 0.00 0.00 0.01 0.04 0.01 0.00 0.00 0.00 0.00 0.00 0.00 0.00 0.03 0.03 0.04 0.01 0.00 0.00 0.00
0.01 0.12 3.54 5.52 2.92 0.06 0.02 0.01 0.03 0.00 0.01 0.00 0.00 0.00 0.00 0.00 0.00 0.00 0.00 0.00 0.00 0.00 0.00 0.00 0.00 0.00 0.00 0.00 0.00 0.00 0.01 0.02 0.02 0.02 0.00 0.01 0.01 0.03 0.02 0.02 0.02 0.01 0.00 0.00
0.03 0.01 0.38 5.99 4.79 3.30 0.01 0.00 0.00 0.00 0.11 0.00 0.00 0.00 0.00 0.00 0.00 0.00 0.00 0.00 0.00 0.00 0.00 0.00 0.00 0.00 0.00 0.00 0.00 0.00 0.01 0.02 0.02 0.02 0.02 0.01 0.02 0.02 0.02 0.02 0.03 0.04 0.03 0.03
3.65 4.98 6.78 4.66 3.84 0.96 0.00 0.00 0.00 0.33 0.01 0.00 0.00 0.00 0.00 0.00 0.00 0.00 0.00 0.00 0.00 0.00 0.00 0.00 0.00 0.00 0.00 0.01 0.02 0.03 0.03 0.03 0.03 0.04 0.03 0.03 0.03 0.03 0.01 0.03 0.03 0.03 0.04 0.04
1.31 3.29 5.95 3.63 4.28 4.37 0.00 0.00 0.00 0.00 0.00 0.00 0.00 0.00 0.00 0.00 0.00 0.00 0.00 0.00 0.00 0.00 0.00 0.00 0.00 0.00 0.00 0.03 0.02 0.03 0.03 0.04 0.07 0.08 0.09 0.09 0.10 0.05 0.04 0.08 0.06 0.17 0.06 0.09
1.47 0.46 1.17 0.14 0.46 0.00 0.00 0.00 0.00 0.00 0.00 0.00 0.00 0.00 0.00 0.00 0.00 0.00 0.00 0.00 0.00 0.00 0.00 0.01 0.02 0.07 0.08 0.19 0.10 0.14 0.16 0.18 0.25 0.27 0.46 0.40 0.38 0.28 0.21 0.14 0.15 0.45 0.18 0.41
0.11 0.05 0.74 0.59 0.03 0.00 0.00 0.00 0.00 0.00 0.00 0.00 0.00 0.00 0.00 0.00 0.00 0.00 0.00 0.00 0.00 0.02 0.03 0.08 0.14 0.22 0.22 0.22 0.27 0.22 0.22 0.26 0.64 0.51 0.30 0.24 0.28 0.26 0.30 0.46 0.42 0.52 0.53 0.53
0.27 0.15 0.47 0.30 0.03 0.03 0.00 0.00 0.00 0.00 0.00 0.00 0.00 0.00 0.00 0.00 0.00 0.00 0.00 0.01 0.01 0.02 0.12 0.23 0.37 0.38 0.33 0.30 0.31 0.41 0.34 0.30 0.24 0.31 0.21 0.23 0.38 0.27 0.26 0.33 0.44 0.45 0.21 0.45
0.24 0.25 0.56 0.24 0.04 0.04 0.00 0.00 0.00 0.00 0.00 0.00 0.00 0.01 0.02 0.01 0.01 0.02 0.02 0.02 0.02 0.06 0.15 0.24 0.27 0.29 0.24 0.35 0.41 0.54 0.62 0.42 0.32 0.18 0.45 0.38 0.39 0.39 0.38 0.44 0.52 nan nan nan
SL_Ratio
nan nan nan nan nan nan nan nan nan nan nan nan nan nan nan nan nan nan nan nan nan nan nan nan nan nan nan nan nan nan nan nan nan nan nan nan nan nan nan nan nan nan nan nan
2.3 nan nan nan nan nan nan nan 1.7 nan nan nan nan nan nan nan nan nan nan nan nan nan nan nan nan nan nan nan nan nan nan nan nan nan nan nan nan nan nan nan nan nan nan nan
2.5 nan nan nan nan nan nan nan nan nan nan nan nan nan nan nan nan nan nan nan nan nan nan nan nan nan nan nan nan nan nan nan nan nan nan nan nan nan nan nan nan nan nan nan
2.5 nan nan nan nan nan nan nan nan nan 2.6 3.2 nan 3.1 nan nan nan nan nan nan nan nan nan nan nan nan nan nan nan nan nan nan nan nan nan nan nan nan nan nan nan nan nan nan
nan nan nan nan nan nan nan nan nan nan nan 3.3 nan 3.1 nan nan nan nan nan nan nan nan nan nan nan nan nan nan nan nan nan nan nan nan nan nan nan nan nan nan nan nan nan nan
nan nan nan nan nan nan nan nan nan nan 0.0 3.5 nan nan nan nan nan nan nan nan nan nan nan nan nan nan nan nan nan nan nan nan nan nan nan nan nan nan nan nan nan nan nan nan
nan nan nan nan nan nan nan 3.1 3.4 3.6 3.8 3.7 nan nan nan nan nan nan nan nan nan nan nan nan nan nan nan nan nan nan nan nan nan nan nan nan nan nan nan nan nan nan nan nan
3.1 3.4 nan nan nan 2.7 nan 2.9 3.5 4.7 4.3 3.4 nan 3.1 nan nan nan nan nan nan nan nan nan nan nan nan nan nan nan nan nan nan nan nan nan nan nan nan nan nan nan nan nan nan
3.3 3.3 nan nan nan nan 3.6 3.5 nan 4.3 4.7 3.5 2.4 nan nan nan nan nan nan nan nan nan nan nan nan nan nan nan nan nan nan nan nan nan nan nan nan nan nan nan nan nan nan nan
2.6 3.9 2.7 nan 2.5 nan 4.0 nan 3.5 3.1 4.4 4.4 2.6 3.3 2.5 nan nan nan nan nan nan nan nan nan nan nan nan nan nan nan nan nan nan nan nan nan nan nan nan nan nan nan nan nan
2.5 3.8 3.4 2.7 2.7 2.7 3.1 3.0 2.5 2.5 2.7 4.0 4.0 3.8 nan nan nan nan nan nan nan nan nan nan nan nan nan nan nan nan nan nan nan nan nan nan nan nan nan nan nan nan nan nan
nan 3.3 4.5 3.5 2.5 nan nan nan nan 3.5 3.9 3.4 3.8 5.1 nan nan nan nan nan nan nan nan nan nan nan nan nan nan nan nan nan nan nan nan nan nan nan nan nan nan nan nan nan nan
2.5 4.6 4.9 4.9 4.3 2.9 2.9 10.0 nan 3.3 3.4 5.0 4.3 4.1 nan nan nan nan nan nan nan nan nan nan nan nan nan nan nan nan nan nan nan nan nan nan nan nan nan nan nan nan nan nan
nan 3.8 3.8 3.7 4.0 2.5 4.0 3.5 3.0 3.6 3.8 3.5 3.8 3.7 2.5 2.6 2.9 2.5 2.5 2.5 2.5 2.3 2.5 nan nan nan nan nan nan nan nan nan nan nan nan nan nan nan nan nan nan nan nan nan
nan 3.8 4.1 3.9 3.3 3.1 3.4 4.2 4.6 5.3 4.1 3.8 3.6 4.1 2.5 2.5 2.4 2.5 2.4 nan 2.3 2.5 2.5 2.5 2.5 2.5 2.4 2.5 2.7 nan nan nan nan nan nan nan nan nan nan nan nan nan nan nan
nan 3.2 4.6 5.2 4.5 3.6 4.9 3.5 3.7 4.8 3.8 4.1 4.4 4.6 nan nan nan 2.6 2.5 2.9 0.0 0.0 2.5 2.5 2.5 2.5 2.8 2.9 2.6 nan 2.6 2.5 nan nan nan nan nan nan nan nan nan nan nan nan
5.0 3.6 3.0 3.4 5.8 5.6 4.7 5.1 3.9 3.4 2.9 2.5 4.2 3.5 nan 2.5 nan nan nan nan nan nan nan nan nan 2.5 2.7 2.6 nan 2.5 nan nan nan nan 2.6 2.5 2.6 2.1 2.5 2.5 nan nan nan nan
4.7 4.7 3.3 3.7 3.6 5.2 4.0 2.5 3.0 3.1 2.5 5.0 3.3 3.3 nan nan nan nan nan nan nan nan nan nan nan nan nan 2.5 2.6 2.5 nan nan 5.0 nan nan nan nan 2.5 2.5 2.5 2.2 2.5 nan 2.0
6.2 4.9 4.4 4.6 4.3 4.2 3.3 3.2 3.6 3.6 2.5 nan nan nan nan nan nan nan nan nan nan nan nan nan nan nan nan nan 0.0 nan 2.6 2.7 2.4 2.4 3.3 2.7 2.7 2.4 2.5 2.4 2.5 2.5 nan 0.0
6.1 5.0 3.7 4.5 3.9 5.8 3.0 nan nan nan 2.9 nan nan nan nan nan nan nan nan nan nan nan nan nan nan nan nan nan nan 0.0 2.6 2.5 3.1 2.8 2.4 2.5 2.5 2.4 2.5 2.6 2.5 2.5 2.6 2.5
4.5 4.1 4.5 4.3 3.9 3.4 nan nan nan 3.7 3.1 nan nan nan nan nan nan nan nan nan nan nan nan nan nan nan 3.0 2.6 2.6 2.8 2.8 3.0 2.8 2.8 2.5 2.5 2.6 2.5 2.6 2.5 2.5 2.5 2.5 2.5
6.3 5.1 4.8 4.5 4.4 5.6 nan nan nan nan nan nan nan nan nan nan nan nan nan nan nan nan nan 2.5 nan nan 2.5 3.3 2.8 3.0 3.1 3.4 3.8 3.5 3.3 3.1 2.6 2.5 2.5 2.5 2.5 2.5 2.5 2.5
5.8 5.3 4.1 4.8 3.5 nan nan nan nan nan nan nan nan nan nan nan nan nan nan nan nan nan nan 3.3 3.5 4.5 5.0 4.8 3.9 4.6 4.7 5.0 5.1 3.7 3.4 3.1 3.1 2.6 2.5 2.5 2.5 2.5 2.5 2.5
5.4 3.7 4.0 4.3 2.7 nan nan nan nan nan nan nan nan nan nan nan nan nan nan nan nan 3.5 4.2 5.1 5.4 6.2 6.6 6.3 6.5 4.8 5.4 5.1 3.0 3.1 3.8 3.7 3.3 3.1 2.9 2.6 2.5 2.5 2.5 2.5
4.9 4.7 4.6 4.2 3.4 3.1 2.0 nan nan nan nan nan nan nan nan nan nan nan 2.0 2.5 2.7 3.8 6.0 6.1 7.0 7.3 6.7 7.3 7.2 6.2 5.9 4.3 3.8 3.5 4.5 3.7 3.2 2.8 3.3 3.9 2.5 2.6 2.7 2.5
5.5 6.1 5.4 4.1 5.2 6.2 nan 2.5 2.0 nan nan nan nan 2.8 2.7 2.5 2.8 3.1 3.1 2.9 3.5 5.0 6.0 7.2 7.2 7.8 7.1 8.2 7.8 7.2 5.0 4.2 4.1 4.3 4.1 3.3 3.1 3.2 3.4 3.3 3.3 nan nan nan